Location: Unspecified
(0.0000°N, 0.0000°E)
Time: 12:10:52
(UTC+00:00)

SR - Pass Details

Date: 15 December 2018
Orbit: 584 x 872 km, 66.7° (Epoch: 25 March)

Event Time Altitude Azimuth Distance (km) Brightness Sun altitude
Rises 23:45:57 0° 186° (S) 3,411 - -66.6°
Reaches altitude 10° 23:48:32 10° 179° (S) 2,495 - -66.6°
Maximum altitude 23:54:00 42° 109° (ESE) 1,223 - -66.7°
Drops below altitude 10° 23:59:28 10° 40° (NE) 2,500 - -66.7°
Sets 00:02:03 0° 33° (NNE) 3,418 - -66.6°
